Regional Weather Roundup
Issued by NWS

Home | Current Version | Previous Version | Text Only | Print | Product List | Glossary Off
Versions: 1 2 3 4 5 6 7 8 9 10 11 12 13 14 15 16 17 18 19 20 21 22 23 24 25 26 27 28 29 30 31 32 33 34 35 36 37 38 39 40 41 42 43 44 45 46 47 48 49 50

000
ASUS44 KMEG 032000
RWRTN
TENNESSEE HOURLY STATE WEATHER ROUNDUP
NATIONAL WEATHER SERVICE MEMPHIS TN
300 PM CDT FRI JUL 03 2015

TNZ002-004-019-021-049-052-054-088>092-032100-
WEST TENNESSEE

CITY           SKY/WX    TMP DP  RH WIND       PRES   REMARKS
MEMPHIS INTL   LGT RAIN  75  72  90 SW10      29.94F
NWS MEMPHIS      N/A     74 N/A N/A MISG        N/A
JACKSON        LGT RAIN  72  69  90 SW8       29.94F
DYERSBURG        N/A    N/A N/A N/A MISG        N/A
PARIS          PTSUNNY   73  72  94 SW6       29.92S
LEXINGTON      CLOUDY    72  68  88 SW8       29.95R
$$

TNZ008-025-027-028-033-062-065-066-032100-
NORTH MIDDLE TENNESSEE

CITY           SKY/WX    TMP DP  RH WIND       PRES   REMARKS
NASHVILLE      CLOUDY    80  73  79 SW8       29.90F
CLARKSVILLE    CLOUDY    79  70  74 SW10      29.88F
COOKEVILLE     PTSUNNY   82  73  74 SW9       29.92S
CROSSVILLE     PTSUNNY   76  67  73 W13G18    29.97F
$$

TNZ061-075-076-078-094-096-097-032100-
SOUTH MIDDLE TENNESSEE

CITY           SKY/WX    TMP DP  RH WIND       PRES   REMARKS
FAYETTEVILLE   MOSUNNY   73  66  78 W14       30.00F
TULLAHOMA        N/A     75  66  73 SW21      29.99S
WINCHESTER     MOSUNNY   77  70  78 SW10      30.00S
SHELBYVILLE    PTSUNNY   79  70  73 SW16        N/A
$$

TNZ017-018-042-046-047-032100-
NORTHEAST TENNESSEE

CITY           SKY/WX    TMP DP  RH WIND       PRES   REMARKS
TRI CITIES     LGT RAIN  72  68  87 SW7       29.95S
ELIZABETHTON   HVY RAIN  68  66  94 SW3       29.96R FOG
$$

TNZ012-013-036-069-073-074-032100-
CENTRAL EAST TENNESSEE

CITY           SKY/WX    TMP DP  RH WIND       PRES   REMARKS
KNOXVILLE      CLOUDY    75  69  81 SW17      29.92F
OAK RIDGE      CLOUDY    78  69  73 SW8       29.92F
GATLINBURG     PTCLDY    77  66  69 SW13      29.92S
$$

TNZ083-085-099-032100-
SOUTHEAST TENNESSEE

CITY           SKY/WX    TMP DP  RH WIND       PRES   REMARKS
CHATTANOOGA    CLOUDY    80  67  64 W15G23    29.97F
$$

SKY/WX REPORTED AS FAIR MEANS FEW OR NO CLOUDS BELOW
12 THOUSAND FEET.




USA.gov is the U.S. government's official web portal to all federal, state and local government web resources and services.